Location: Unspecified
(43.4354°N, 0.0000°E)
Time: 07:33:25
(UTC+00:00)

Vanguard 2 Rocket - Pass Details

Date: 24 June 2019
Orbit: 554 x 3326 km, 32.9° (Epoch: 19 July)

Event Time Altitude Azimuth Distance (km) Brightness Sun altitude
Rises 20:42:18 0° 226° (SW) 3,553 10.0 -8.9°
Reaches altitude 10° 20:44:41 10° 216° (SW) 2,869 9.4 -9.2°
Maximum altitude 20:51:01 34° 154° (SSE) 2,240 8.4 -10.0°
Drops below altitude 10° 21:01:18 10° 96° (E) 4,711 10.1 -11.3°
Sets 21:06:27 0° 89° (E) 6,192 10.8 -11.9°
